Date,TemperatureHighF,TemperatureAvgF,TemperatureLowF,DewpointHighF,DewpointAvgF,DewpointLowF,HumidityHigh,HumidityAvg,HumidityLow,PressureMaxIn,PressureMinIn,WindSpeedMaxMPH,WindSpeedAvgMPH,GustSpeedMaxMPH,PrecipitationSumIn
2013-1-1,35.2,24.7,14.4,23.6,18.4,7.1,86,77,59,30.10,30.00,5,2,13,0.00
2013-1-2,31.3,17.8,9.3,16.6,9.1,4.4,82,69,48,30.14,30.06,6,2,14,0.00
2013-1-3,32.0,25.6,16.7,25.0,19.2,9.9,85,76,68,30.18,30.04,6,3,15,0.00
2013-1-4,37.8,24.6,14.2,25.1,18.6,10.3,86,78,57,30.18,30.08,7,3,24,0.00
2013-1-5,36.7,29.3,20.5,31.0,24.6,17.3,88,83,67,30.19,29.93,6,3,20,0.00
2013-1-6,35.6,30.9,23.2,31.5,25.7,19.6,86,80,72,30.25,29.86,7,3,21,0.01
2013-1-7,40.3,27.7,17.6,27.7,21.8,14.4,88,79,53,30.28,30.07,8,4,21,0.00
2013-1-8,43.0,33.5,27.3,32.5,27.8,23.8,87,79,65,30.13,30.02,5,2,17,0.00
2013-1-9,53.2,41.3,27.3,36.7,29.1,20.5,84,64,34,30.42,29.98,10,4,26,0.01
2013-1-10,42.6,34.4,24.3,35.2,28.2,20.6,88,78,62,30.43,29.90,4,2,11,0.57
2013-1-11,53.2,50.1,40.5,48.8,44.6,32.3,89,81,51,29.88,29.66,7,4,21,0.37
2013-1-12,59.5,49.3,35.2,50.9,43.3,32.6,90,80,65,29.89,29.72,6,3,23,0.18
2013-1-13,35.8,28.9,14.9,33.7,26.0,10.2,92,89,80,30.15,29.78,3,1,11,0.08
2013-1-14,27.1,17.9,11.8,19.3,12.7,8.0,87,80,67,30.37,30.16,0,0,0,0.00
2013-1-15,37.6,22.0,13.1,24.6,16.3,9.7,87,79,59,30.34,30.04,0,0,0,0.01
2013-1-16,39.7,28.5,15.4,28.0,21.7,12.3,89,76,52,30.03,29.80,9,2,24,0.00
2013-1-17,38.3,29.6,19.0,29.3,19.7,11.9,85,67,43,30.31,29.98,5,2,15,0.00
2013-1-18,43.2,30.1,16.9,29.4,22.0,11.6,87,72,55,30.35,29.92,10,4,29,0.00
2013-1-19,52.3,42.3,36.7,37.8,33.0,21.0,77,70,50,29.92,29.69,12,6,28,0.00
2013-1-20,34.9,21.4,15.6,20.4,7.7,3.1,65,55,44,30.20,29.80,13,5,33,0.00
2013-1-21,18.0,11.9,4.8,7.9,1.6,-5.2,84,63,47,30.17,30.04,9,5,24,0.00
2013-1-22,16.5,7.6,0.5,0.7,-3.1,-6.4,72,61,44,30.28,30.16,6,3,15,0.00
2013-1-23,21.2,16.2,9.7,15.0,6.6,0.2,85,65,55,30.24,30.02,8,3,17,0.00
2013-1-24,24.6,18.0,13.8,14.2,10.3,6.7,89,72,54,30.52,30.17,5,1,14,0.00
2013-1-25,27.5,22.8,17.6,21.5,16.4,10.7,89,76,64,30.30,29.91,6,2,14,0.00
2013-1-26,35.8,24.1,17.4,21.6,16.7,12.3,83,73,55,30.33,30.05,5,2,12,0.02
2013-1-27,31.8,25.7,21.2,25.3,20.2,17.1,84,79,72,30.31,30.10,4,2,13,0.00
2013-1-28,50.4,43.7,35.2,46.3,38.2,27.0,88,81,65,29.90,29.80,6,3,17,0.08
2013-1-29,59.9,56.6,44.8,56.7,39.8,11.4,92,62,16,29.82,29.35,8,5,23,0.84
2013-1-30,53.6,39.2,24.1,50.3,34.6,19.2,91,84,74,29.53,29.14,10,3,26,0.32
2013-1-31,23.9,16.7,7.0,19.0,10.3,1.1,84,76,68,30.04,29.53,10,6,24,0.01
2013-2-1,19.8,10.6,1.8,12.9,3.0,-3.4,85,71,54,30.27,30.04,7,4,19,0.00
2013-2-2,27.9,20.3,12.9,23.8,17.1,8.3,93,87,80,30.12,29.90,5,2,14,0.00
2013-2-3,28.6,17.4,10.0,16.6,10.8,4.4,84,75,55,30.12,29.87,8,2,21,0.00
2013-2-4,30.0,24.2,19.8,23.7,20.4,16.0,90,85,75,30.11,29.71,3,1,12,0.00
2013-2-5,32.2,26.3,16.2,29.1,22.8,13.8,92,87,78,30.02,29.76,7,2,16,0.00
2013-2-6,43.2,32.1,19.8,27.6,23.7,15.9,86,72,50,30.21,30.03,5,2,15,0.06
2013-2-7,46.9,35.4,28.9,36.2,30.4,25.6,90,82,65,30.10,28.94,5,1,15,0.26
2013-2-8,34.5,30.3,27.7,30.2,26.8,24.4,93,87,76,30.35,28.98,6,2,20,0.00
2013-2-9,41.9,32.2,27.3,29.7,25.8,22.5,90,78,60,30.37,30.11,5,2,14,0.02
2013-2-10,49.8,41.8,30.7,46.4,38.3,25.0,92,87,76,30.11,29.56,9,4,29,0.17
2013-2-11,48.9,36.9,29.7,43.0,28.5,22.1,80,71,68,30.00,29.57,11,7,34,0.01
2013-2-12,32.2,27.8,19.9,24.0,21.3,17.3,90,76,70,30.09,29.92,8,3,22,0.00
2013-2-13,50.0,32.5,19.0,34.5,26.4,16.9,94,80,53,29.93,29.72,6,2,17,0.00
2013-2-14,43.0,36.3,30.9,33.8,28.7,21.6,89,74,57,29.96,29.68,7,4,23,0.00
2013-2-15,36.7,30.2,24.4,25.5,19.7,11.5,85,66,43,30.15,29.96,5,2,14,0.01
2013-2-16,25.9,18.6,13.1,18.4,8.8,3.5,83,66,45,30.14,30.08,8,3,17,0.00
2013-2-17,34.9,21.8,9.7,14.9,7.6,2.1,73,56,31,30.19,30.05,5,2,10,0.00
2013-2-18,55.9,39.8,24.8,44.0,30.1,13.6,92,69,54,30.05,29.46,12,5,30,0.27
2013-2-19,34.0,18.0,12.9,31.4,11.6,5.8,90,75,66,30.12,29.54,9,3,103,0.01
2013-2-20,30.4,18.2,9.7,17.5,9.8,2.7,80,70,49,30.31,30.12,6,3,15,0.00
2013-2-21,27.3,25.5,22.6,21.4,19.3,17.7,88,77,71,30.33,29.99,10,4,36,0.00
2013-2-22,33.6,28.0,21.7,31.2,24.8,19.3,93,88,76,29.99,29.82,10,4,30,0.00
2013-2-23,37.4,28.4,23.9,34.5,22.1,18.1,91,77,58,29.92,29.41,14,5,35,0.02
2013-2-24,43.0,24.6,15.6,23.1,17.4,12.5,88,75,45,30.08,29.84,6,3,16,0.04
2013-2-25,48.2,28.5,19.2,30.3,21.9,16.4,90,78,48,30.14,29.92,9,2,22,0.00
2013-2-26,34.0,32.8,31.8,31.2,28.3,23.8,92,84,66,29.92,29.45,15,5,36,0.38
2013-2-27,36.7,33.2,32.2,34.2,31.2,29.9,94,92,90,29.62,29.45,6,1,17,0.31
2013-2-28,38.3,33.1,29.8,34.8,30.6,27.2,94,90,83,29.97,29.62,7,2,23,0.40
2013-3-1,38.8,31.3,27.5,29.0,25.3,20.0,92,79,60,30.09,29.95,4,1,13,0.06
2013-3-2,32.5,27.6,25.2,24.1,20.7,17.5,84,75,66,30.10,30.06,9,3,23,0.00
2013-3-3,42.6,26.5,16.0,21.4,15.3,11.5,84,65,30,30.08,30.02,9,3,23,0.01
2013-3-4,39.7,28.1,14.5,27.9,20.0,11.1,89,73,51,30.09,29.96,7,2,19,0.00
2013-3-5,32.9,30.3,27.7,29.9,28.0,26.5,95,91,79,29.96,29.72,8,4,25,0.00
2013-3-6,35.6,31.5,28.0,31.1,28.0,25.4,94,87,79,30.23,29.88,9,4,24,0.01
2013-3-7,46.0,34.7,27.5,29.8,26.4,22.1,89,73,48,30.35,30.22,6,3,14,0.21
2013-3-8,47.5,31.3,17.1,27.4,22.0,15.1,93,71,44,30.45,30.29,6,2,19,0.00
2013-3-9,43.7,36.5,27.1,34.1,29.2,21.0,81,75,60,30.29,29.86,8,3,27,0.00
2013-3-10,57.0,46.4,37.4,48.5,41.3,33.5,94,83,69,29.86,29.64,8,2,27,0.33
2013-3-11,50.0,41.0,32.4,47.8,38.4,29.6,95,91,84,29.76,29.54,12,6,41,0.09
2013-3-12,39.4,32.4,27.5,30.0,26.1,20.6,93,78,56,29.95,29.77,15,4,44,0.01
2013-3-13,40.5,29.0,23.4,21.9,17.5,13.8,87,63,39,30.27,29.95,12,6,33,0.01
2013-3-14,45.0,31.0,20.8,28.4,19.4,14.2,81,63,39,30.27,30.13,8,4,25,0.00
2013-3-15,49.6,37.3,28.4,40.2,33.0,27.1,96,86,60,30.06,29.69,9,2,17,0.14
2013-3-16,36.9,33.5,29.7,35.7,30.3,23.4,96,88,77,30.06,29.63,7,2,21,0.00
2013-3-17,39.4,32.3,28.8,24.8,22.5,20.0,78,67,51,30.15,29.97,10,3,28,0.00
2013-3-18,29.1,28.7,28.2,26.1,23.5,22.0,89,80,76,29.97,29.73,10,7,28,0.00
2013-3-19,43.9,32.2,26.4,31.4,23.7,14.6,81,71,49,30.26,29.92,13,3,32,0.67
2013-3-20,31.8,23.3,18.1,15.7,9.5,5.6,80,56,36,29.92,29.86,16,9,33,0.00
2013-3-21,40.5,24.6,14.4,17.3,10.4,5.6,76,56,36,29.90,29.84,12,6,24,0.00
2013-3-22,48.0,30.3,16.7,19.7,16.7,12.2,84,60,32,29.93,29.85,9,2,21,0.00
2013-3-23,48.4,33.5,23.7,26.0,22.7,19.0,84,67,40,29.99,29.86,5,2,19,0.00
2013-3-24,38.1,32.4,28.0,28.3,24.4,21.8,91,73,55,29.88,29.56,14,6,41,0.00
2013-3-25,42.4,33.7,28.0,30.8,27.8,25.5,91,79,60,30.03,29.60,9,4,30,0.18
2013-3-26,48.9,37.0,30.6,31.3,28.1,25.3,94,72,44,30.23,30.03,10,5,31,0.08
2013-3-27,50.9,37.9,28.4,29.2,24.8,19.1,82,61,37,30.30,30.23,9,4,26,0.00
2013-3-28,35.8,31.0,28.0,30.9,27.6,25.1,94,87,78,30.60,30.16,10,4,24,0.00
2013-3-29,46.0,34.9,30.0,29.5,26.5,22.6,88,73,47,30.72,30.59,7,3,18,0.22
2013-3-30,47.5,30.7,17.1,26.9,21.7,14.9,92,72,43,30.82,30.70,7,2,21,0.00
2013-3-31,59.4,33.7,27.1,34.3,25.3,20.4,80,72,37,30.71,30.05,18,3,45,0.94
2013-4-1,47.5,30.6,17.1,26.9,21.7,14.9,92,72,43,30.34,30.23,7,2,21,0.00
2013-4-2,52.0,32.8,25.7,31.0,22.7,10.0,80,69,19,30.24,30.00,9,2,22,0.94
2013-4-3,51.3,35.0,20.5,25.6,17.0,12.7,75,51,23,30.29,30.14,6,2,18,0.00
2013-4-4,64.2,43.9,24.3,24.1,20.2,17.1,75,43,18,30.18,29.83,10,3,29,0.00
2013-4-5,52.7,42.9,33.8,32.1,26.7,21.4,84,55,29,30.06,29.84,7,4,29,0.00
2013-4-6,71.8,53.1,33.3,43.4,32.8,24.4,74,48,29,30.02,29.53,18,9,60,0.00
2013-4-7,68.5,53.6,44.1,47.4,40.9,34.9,82,64,39,29.83,29.53,28,7,86,0.02
2013-4-8,74.8,55.1,43.5,55.8,45.2,35.1,94,71,48,29.85,29.56,24,7,66,0.21
2013-4-9,80.8,55.7,42.8,60.8,47.6,39.5,91,75,48,29.86,29.67,18,5,42,0.00
2013-4-10,53.1,43.6,40.8,48.4,41.2,38.6,94,91,81,29.80,29.65,15,4,38,0.22
2013-4-11,51.8,46.0,42.1,50.7,44.5,40.5,96,94,92,29.69,29.44,12,5,36,1.25
2013-4-12,46.4,39.9,36.5,41.4,34.8,30.4,94,82,71,29.72,29.46,11,6,44,0.04
2013-4-13,46.0,37.4,34.2,33.5,31.2,28.1,89,79,53,29.81,29.73,13,7,39,0.02
2013-4-14,71.8,52.8,39.0,51.5,40.5,30.8,78,64,46,29.87,29.61,13,5,29,0.00
2013-4-15,70.2,57.7,45.0,57.7,50.4,43.3,94,78,57,29.83,29.62,21,8,44,0.78
2013-4-16,55.2,47.1,41.9,43.7,38.9,33.7,94,74,53,30.11,29.80,7,2,22,0.34
2013-4-17,54.7,47.8,42.8,49.6,42.1,33.8,96,81,69,30.11,29.68,16,6,45,0.74
2013-4-18,69.4,57.5,44.2,64.5,55.4,40.6,97,93,83,29.69,29.36,23,7,48,0.91
2013-4-19,43.9,37.9,34.0,40.0,30.6,27.6,86,75,66,29.76,29.39,17,10,52,0.01
2013-4-20,52.0,39.5,31.1,29.2,23.5,17.0,82,55,33,30.29,29.77,12,5,39,0.00
2013-4-21,57.6,42.8,28.2,30.8,24.4,19.9,71,50,27,30.38,30.21,9,4,29,0.00
2013-4-22,72.0,53.6,35.1,37.9,33.9,28.8,82,51,23,30.21,29.94,9,3,30,0.00
2013-4-23,66.7,51.3,37.8,53.2,43.2,35.9,94,75,55,29.94,29.74,15,4,48,0.43
2013-4-24,55.0,41.9,36.1,35.7,32.7,29.1,93,72,39,30.01,29.75,10,4,236,0.02
2013-4-25,56.1,44.2,34.5,36.1,31.3,27.1,79,62,36,30.20,29.95,15,6,44,0.00
2013-4-26,70.0,51.4,32.2,45.3,37.2,27.3,84,61,39,30.24,30.14,15,5,46,0.00
2013-4-27,74.1,57.6,38.8,48.8,42.0,35.2,90,61,26,30.17,29.88,8,3,33,0.00
2013-4-28,69.3,57.5,49.1,56.4,51.4,46.6,93,81,59,29.88,29.70,6,2,16,0.09
2013-4-29,75.9,61.8,46.2,55.2,51.3,44.3,95,71,46,29.81,29.70,12,4,36,0.00
2013-4-30,88.0,71.2,57.4,61.2,56.3,51.3,81,62,34,29.85,29.72,14,6,33,0.02
2013-5-1,88.7,73.1,56.8,59.4,55.8,53.3,90,59,31,30.01,29.85,9,3,29,0.00
2013-5-2,64.2,53.9,41.2,55.5,44.7,37.2,86,72,55,30.06,29.97,9,4,24,0.12
2013-5-3,64.8,50.6,40.8,54.7,45.7,37.4,94,84,63,29.96,29.80,4,2,14,0.45
2013-5-4,79.0,64.7,54.3,54.7,49.5,43.6,92,61,32,29.90,29.81,9,2,33,0.00
2013-5-5,56.5,56.5,56.5,50.4,50.4,50.4,80,80,80,29.89,29.84,0,0,0,0.00
2013-5-6,79.9,62.7,50.0,52.5,45.1,39.4,77,55,32,29.88,29.82,4,1,14,0.06
2013-5-7,80.4,64.2,47.8,52.8,46.1,39.4,74,54,36,29.91,29.85,4,1,16,0.00
2013-5-8,85.6,68.3,52.7,55.8,50.0,44.2,83,55,30,29.90,29.83,5,1,18,0.00
2013-5-9,80.2,64.2,52.2,59.2,54.1,46.7,94,73,40,29.85,29.69,14,2,34,0.37
2013-5-10,60.8,49.0,41.2,59.7,47.0,39.3,96,92,85,29.82,29.63,8,3,30,0.01
2013-5-11,63.3,47.9,38.5,52.2,41.7,33.7,95,80,57,29.88,29.70,12,3,29,0.00
2013-5-12,60.8,47.4,36.3,34.1,30.9,28.6,79,54,32,29.98,29.88,9,3,31,0.01
2013-5-13,71.1,53.6,34.0,36.2,30.8,24.9,83,46,20,30.04,29.92,7,2,21,0.00
2013-5-14,97.3,72.5,51.3,61.3,48.8,31.2,60,45,24,29.91,29.60,16,5,46,0.00
2013-5-15,87.6,75.4,60.8,61.0,55.2,51.1,71,51,30,29.85,29.69,9,4,29,0.00
2013-5-16,91.4,71.4,53.6,54.1,48.5,44.0,87,50,22,29.96,29.78,4,1,15,0.01
2013-5-17,83.1,68.3,58.3,62.1,54.9,44.9,94,64,46,29.92,29.84,7,1,30,0.07
2013-5-18,85.3,69.5,57.4,64.5,59.0,48.1,94,71,48,29.96,29.85,5,1,22,0.00
2013-5-19,90.9,75.7,60.8,67.9,63.1,57.0,91,68,41,29.87,29.68,8,2,31,0.04
2013-5-20,90.9,79.4,70.7,69.3,65.5,59.8,88,65,36,29.73,29.64,13,5,44,0.02
2013-5-21,84.9,72.4,63.0,68.3,64.3,61.4,96,77,54,29.70,29.58,14,5,42,0.81
2013-5-22,77.9,69.6,63.2,66.0,62.0,54.9,93,78,47,29.75,29.56,12,4,33,0.12
2013-5-23,62.9,48.8,40.3,57.3,45.0,36.0,93,87,70,30.22,29.74,6,3,24,0.13
2013-5-24,66.9,50.2,39.6,42.3,37.8,33.0,90,66,35,30.39,30.22,5,2,20,0.00
2013-5-25,64.0,50.0,38.7,49.9,41.4,33.8,88,73,58,30.37,30.25,4,1,12,0.00
2013-5-26,73.2,58.1,42.8,53.3,46.3,38.8,89,67,38,30.30,30.14,6,1,21,0.01
2013-5-27,63.3,56.3,52.9,58.1,53.6,51.5,95,91,83,30.14,29.97,4,2,21,0.22
2013-5-28,77.5,72.9,63.0,68.8,59.9,55.4,95,65,55,30.26,30.04,10,5,35,0.35
2013-5-29,90.1,74.9,62.8,72.4,65.5,60.6,97,74,51,30.25,29.95,9,3,29,0.08
2013-5-30,88.3,77.6,68.5,70.6,66.5,60.7,84,69,52,30.00,29.86,12,5,42,0.01
2013-5-31,78.6,70.8,65.1,68.1,65.1,62.3,96,83,69,29.93,29.75,8,4,33,0.19
2013-6-1,79.5,69.7,61.0,67.0,62.7,58.2,94,79,61,29.80,29.69,12,5,41,0.28
2013-6-2,65.3,56.4,43.2,60.7,50.2,39.6,94,80,58,30.04,29.73,7,2,22,0.00
2013-6-3,78.8,57.4,40.6,51.0,43.9,38.7,94,65,35,30.10,30.03,5,1,17,0.00
2013-6-4,80.8,62.1,45.5,52.3,46.4,40.3,85,60,31,30.16,30.07,5,1,20,0.00
2013-6-5,84.7,69.4,56.7,54.4,50.8,46.4,76,54,30,30.09,29.90,4,2,23,0.00
2013-6-6,77.5,64.1,54.0,57.9,50.4,43.9,83,62,49,29.91,29.84,6,3,23,0.04
2013-6-7,78.1,62.8,52.7,56.8,50.4,40.7,89,66,40,29.92,29.86,4,1,22,0.00
2013-6-8,81.5,65.3,50.4,56.7,50.2,42.9,85,60,39,30.00,29.90,8,1,18,0.00
2013-6-9,88.0,72.4,58.3,64.8,56.9,49.7,84,61,35,30.00,29.83,7,2,27,0.00
2013-6-10,84.7,72.1,63.9,68.8,64.6,62.4,96,78,55,29.86,29.75,7,2,24,0.64
2013-6-11,89.6,81.2,69.6,66.2,64.1,62.9,83,57,44,29.93,29.83,9,4,20,0.22
2013-6-12,93.9,73.8,64.8,76.5,69.3,63.6,97,87,55,29.91,29.61,12,1,52,1.00
2013-6-13,78.8,66.1,56.3,64.1,58.0,51.5,98,77,49,30.03,29.59,8,2,23,0.05
2013-6-14,83.8,67.0,54.7,62.2,56.3,51.2,93,71,44,30.10,30.00,6,1,18,0.00
2013-6-15,80.2,68.2,58.5,68.1,62.1,54.6,92,81,62,30.07,29.61,111,3,111,0.09
2013-6-16,87.4,75.1,66.7,68.9,66.0,63.7,91,75,50,29.95,29.62,11,4,27,0.05
2013-6-17,91.8,77.3,63.7,67.9,61.5,56.9,95,63,31,29.97,29.88,6,2,20,0.00
2013-6-18,81.5,69.1,59.0,64.1,58.8,52.8,90,71,51,30.07,29.92,8,2,20,0.00
2013-6-19,88.9,70.0,57.6,58.8,51.7,46.5,76,54,33,30.16,30.06,6,2,18,0.00
2013-6-20,93.2,75.7,60.4,66.9,60.0,48.5,73,59,39,30.19,30.11,4,1,22,0.00
2013-6-21,87.6,75.0,68.7,72.0,66.5,64.3,94,76,53,30.17,29.94,7,2,24,0.63
2013-6-22,88.5,76.3,68.9,73.9,68.6,64.1,89,78,61,30.11,29.99,14,2,24,0.01
2013-6-23,92.1,77.8,70.2,73.6,67.0,64.1,81,70,54,30.08,29.99,9,3,32,0.00
2013-6-24,78.8,78.8,78.8,66.5,66.5,66.5,66,66,66,30.05,30.04,4,4,11,0.00
2013-6-25,91.0,73.9,66.9,75.5,68.9,65.4,95,85,59,30.04,29.88,14,2,26,0.00
2013-6-26,83.8,73.0,64.4,73.7,68.4,63.3,98,86,69,29.96,29.80,7,2,34,2.11
2013-6-27,96.8,77.5,66.9,73.5,68.8,65.3,96,77,44,29.86,29.76,7,2,26,0.01
2013-6-28,90.1,74.5,65.3,66.0,63.9,60.2,92,72,39,29.77,29.67,7,2,24,0.02
2013-6-29,77.9,67.8,64.2,66.4,63.1,61.5,94,85,66,29.80,29.65,4,1,18,0.01
2013-6-30,73.9,69.9,65.1,62.8,60.6,58.6,92,73,60,30.01,29.80,9,2,24,0.00
2013-7-1,77.5,71.8,68.0,68.6,62.0,53.5,92,72,55,30.09,29.88,5,1,12,0.00
2013-7-2,68.0,65.0,61.2,60.2,57.1,53.6,92,77,60,30.11,30.06,5,2,14,0.13
2013-7-3,78.8,68.1,61.5,68.6,63.4,59.4,96,86,69,30.11,30.04,4,1,18,0.28
2013-7-4,82.6,66.0,58.1,65.6,61.2,57.3,98,86,56,30.18,30.12,6,1,15,0.00
2013-7-5,89.2,73.9,60.1,69.8,64.6,58.8,97,75,51,30.17,30.08,6,1,17,0.01
2013-7-6,82.4,73.9,67.8,70.8,67.9,65.2,92,82,64,30.14,30.04,4,1,11,0.00
2013-7-7,91.4,74.2,67.8,72.5,68.2,66.0,94,83,49,30.10,30.03,6,1,24,0.00
2013-7-8,87.4,76.2,68.5,74.7,70.3,66.5,94,83,63,30.15,30.01,10,2,34,0.34
2013-7-9,86.2,79.1,72.7,77.3,74.1,70.7,96,85,71,30.06,29.95,7,1,22,0.08
2013-7-10,87.6,78.4,61.7,76.1,68.6,58.2,95,73,51,30.05,29.90,8,2,26,0.19
2013-7-11,88.5,70.6,59.2,66.0,58.8,56.2,96,71,35,30.15,30.06,4,1,23,0.00
2013-7-12,91.9,70.9,56.7,66.1,59.7,54.4,95,71,38,30.20,30.13,4,1,15,0.00
2013-7-13,90.1,74.7,59.5,66.8,62.6,56.6,91,68,43,30.22,30.16,8,2,24,0.00
2013-7-14,94.6,79.4,67.5,73.6,68.7,64.8,91,72,47,30.26,30.20,7,2,23,0.00
2013-7-15,99.0,83.4,72.9,78.4,73.4,70.2,93,74,48,30.33,30.26,4,1,22,0.00
2013-7-16,99.1,84.1,72.7,75.7,72.9,70.6,94,71,44,30.38,30.30,5,1,18,0.00
2013-7-17,99.5,84.4,72.0,74.9,72.3,69.7,93,69,42,30.38,30.23,5,1,17,0.00
2013-7-18,100.8,85.3,74.3,76.7,73.5,71.2,91,70,44,30.25,30.08,6,2,32,0.00
2013-7-19,98.8,86.0,75.2,75.5,72.8,68.9,90,67,39,30.05,29.85,14,4,26,0.00
2013-7-20,97.2,83.0,73.6,73.2,68.1,57.7,79,63,32,29.99,29.85,5,2,18,0.00
2013-7-21,94.6,79.1,68.0,69.2,66.6,63.5,90,68,40,30.03,29.91,4,1,18,0.00
2013-7-22,95.4,78.2,68.9,70.7,67.6,65.7,92,73,41,29.94,29.82,5,2,22,0.01
2013-7-23,82.9,73.2,63.5,69.0,62.2,50.3,85,69,53,30.01,29.75,8,3,29,0.00
2013-7-24,82.8,66.6,52.9,54.3,50.5,46.6,82,59,35,30.10,30.00,7,2,20,0.00
2013-7-25,89.8,67.9,54.0,59.3,54.6,51.1,91,67,32,30.17,30.09,5,1,18,0.00
2013-7-26,80.4,67.8,60.8,63.9,59.5,54.8,89,75,52,30.12,29.93,9,2,24,0.00
2013-7-27,73.2,64.8,56.7,64.5,56.3,46.3,95,75,52,29.97,29.90,10,2,27,0.01
2013-7-28,77.2,59.7,50.7,54.2,49.5,46.2,88,71,40,30.08,29.93,11,4,27,0.02
2013-7-29,86.0,67.5,54.0,61.7,54.7,48.5,84,65,42,30.23,30.07,5,2,20,0.00
2013-7-30,75.9,66.7,56.5,62.3,58.7,53.0,91,76,60,30.25,30.13,3,1,20,0.00
2013-7-31,70.7,67.4,63.1,67.7,64.5,60.9,97,90,81,30.13,30.01,3,0,12,0.04
2013-8-1,92.5,71.8,59.4,66.3,59.3,54.4,100,70,31,30.04,30.00,6,2,24,0.01
2013-8-2,89.4,68.3,59.5,72.3,62.8,54.6,97,84,53,30.02,29.89,7,2,27,1.31
2013-8-3,89.4,71.6,60.1,70.6,61.6,53.5,100,76,35,30.16,29.99,4,1,17,0.01
2013-8-4,88.0,69.5,57.6,63.6,58.2,54.9,94,71,37,30.24,30.16,6,1,17,0.00
2013-8-5,78.3,66.8,57.9,66.5,58.5,52.5,85,75,63,30.19,29.97,8,1,23,0.00
2013-8-6,87.4,72.5,63.7,71.8,66.5,60.8,94,82,57,29.98,29.91,6,2,17,0.02
2013-8-7,90.5,75.6,65.8,77.2,71.1,65.0,98,87,61,29.99,29.87,6,2,18,0.38
2013-8-8,85.8,71.6,63.9,67.5,63.6,58.5,100,78,50,30.06,29.99,7,2,20,0.01
2013-8-9,89.8,70.5,60.1,65.7,61.2,57.7,94,75,40,30.08,30.02,6,1,17,0.00
2013-8-10,92.7,75.2,63.7,69.1,62.5,53.9,96,68,35,30.17,30.08,5,1,17,0.00
2013-8-11,91.6,73.2,58.6,65.1,59.3,52.9,85,64,40,30.18,30.09,5,1,15,0.00
2013-8-12,87.6,73.7,65.3,68.5,65.1,61.5,97,76,49,30.11,29.91,6,2,26,0.39
2013-8-13,79.2,66.1,56.3,67.1,57.0,49.9,98,75,42,30.18,29.97,5,2,24,0.01
2013-8-14,84.6,62.3,50.5,56.6,51.1,47.3,92,70,34,30.26,30.18,5,1,18,0.00
2013-8-15,78.6,62.3,50.5,57.9,52.9,48.0,92,74,47,30.23,30.16,3,1,12,0.00
2013-8-16,90.9,69.8,57.2,59.9,56.3,53.0,92,66,32,30.24,30.17,5,1,20,0.00
2013-8-17,86.7,69.0,55.8,60.6,57.2,53.5,93,69,36,30.29,30.22,7,2,23,0.00
2013-8-18,91.8,71.6,57.6,64.8,59.8,55.6,94,70,37,30.26,30.15,4,1,23,0.00
2013-8-19,92.5,73.6,59.7,65.2,61.4,57.2,94,69,38,30.18,30.09,5,1,15,0.00
2013-8-20,94.8,76.1,63.7,69.0,65.4,61.4,94,72,42,30.19,30.11,6,1,20,0.00
2013-8-21,96.4,78.4,64.9,70.7,66.7,62.9,94,70,40,30.17,30.04,6,2,24,0.00
2013-8-22,75.9,70.3,62.6,72.3,66.7,57.7,97,88,74,30.17,30.04,13,2,42,0.26
2013-8-23,94.6,73.9,63.1,67.0,62.5,55.7,100,72,33,30.22,30.13,5,1,17,0.00
2013-8-24,93.9,72.6,59.2,62.4,58.0,54.4,86,63,33,30.32,30.22,5,1,18,0.00
2013-8-25,95.5,75.8,61.5,67.4,62.2,56.5,85,65,39,30.33,30.21,7,2,22,0.00
2013-8-26,94.3,77.6,65.3,73.9,67.4,60.2,89,72,51,30.23,30.09,7,2,26,0.00
2013-8-27,98.1,83.1,74.5,75.4,71.9,68.7,87,71,43,30.08,29.92,9,3,29,0.00
2013-8-28,81.7,77.1,70.7,72.9,69.4,65.8,96,78,61,30.09,29.91,7,2,23,0.00
2013-8-29,99.7,78.6,68.5,75.2,69.8,65.4,100,78,37,30.13,30.04,9,1,17,0.00
2013-8-30,84.0,77.0,68.2,71.5,69.7,66.2,96,80,66,30.04,29.83,5,1,18,0.09
2013-8-31,91.2,70.3,59.0,89.9,68.4,57.6,96,94,91,29.91,29.87,2,0,9,0.08
2013-9-1,136.4,47.5,-39.3,99.9,45.2,-39.3,100,95,59,30.04,29.98,5,1,11,0.00
2013-9-2,76.3,66.8,60.8,65.4,59.5,55.9,84,78,68,30.19,30.13,3,1,9,0.02
2013-9-3,87.8,64.8,58.1,62.4,57.0,54.4,92,78,39,30.30,30.19,4,1,14,0.00
2013-9-4,77.9,63.2,54.3,61.1,57.2,53.5,98,82,53,30.35,30.27,56,4,56,0.00
2013-9-5,91.8,70.3,59.7,62.7,57.3,50.7,90,67,33,30.46,30.33,9,2,23,0.00
2013-9-6,90.1,70.0,55.8,65.8,56.7,47.2,80,64,43,30.45,30.26,5,1,15,0.00
2013-9-7,90.1,74.3,62.4,68.4,64.3,60.3,95,73,40,30.26,30.12,9,2,26,0.00
2013-9-8,82.9,73.1,68.0,70.0,67.0,64.6,93,81,63,30.24,30.16,8,3,24,0.00
2013-9-9,100.0,79.6,65.5,75.5,69.6,63.0,93,74,44,30.21,30.08,7,2,24,0.00
2013-9-10,100.8,84.6,72.9,70.1,67.7,64.3,87,60,32,30.26,30.14,14,3,34,0.00
2013-9-11,98.8,79.2,70.2,72.1,69.6,67.4,94,75,37,30.29,30.19,10,2,35,0.08
2013-9-12,88.2,73.3,63.3,69.5,62.6,53.8,95,72,32,30.27,30.11,12,3,39,0.00
2013-9-13,76.1,61.3,48.7,53.9,49.2,44.3,86,66,39,30.36,30.26,5,2,24,0.01
2013-9-14,79.2,57.8,44.6,47.0,43.6,40.8,94,64,28,30.41,30.27,5,1,15,0.00
2013-9-15,68.0,57.5,32.2,58.3,50.4,31.2,96,78,62,30.34,30.21,2,0,12,0.02
2013-9-16,80.1,45.2,-20.0,55.7,35.3,-20.8,96,71,42,30.54,30.36,4,1,18,0.00
2013-9-17,78.1,55.7,33.6,55.0,46.3,31.3,91,73,45,30.55,30.35,4,1,17,0.00
2013-9-18,85.8,68.2,57.6,81.3,58.1,49.7,95,71,49,30.35,30.17,6,1,22,0.00
2013-9-19,76.8,30.4,-21.1,76.5,30.3,-21.1,100,100,100,30.21,30.20,1,0,4,0.00
2013-9-20,136.9,63.2,-38.6,99.9,55.9,-38.7,100,81,72,30.08,29.99,11,3,22,0.00
2013-9-21,118.4,56.3,-33.0,96.9,49.2,-45.7,95,79,44,30.11,30.01,12,3,26,0.00
2013-9-22,136.4,59.5,-22.7,99.9,48.0,-26.9,93,69,37,30.28,30.15,7,2,17,0.00
2013-9-23,79.9,56.3,43.5,54.1,46.1,40.5,89,71,37,30.34,30.26,8,2,18,0.00
2013-9-24,80.6,55.1,45.9,54.1,46.7,43.0,91,75,39,30.30,30.15,8,2,24,0.00
2013-9-25,87.6,61.1,50.7,61.1,51.9,46.6,91,74,36,30.19,30.14,5,2,18,0.00
2013-9-26,89.8,62.4,50.0,57.6,52.9,48.3,97,75,32,30.31,30.18,5,1,18,0.00
2013-9-27,89.8,64.0,50.0,54.8,49.4,44.4,88,63,24,30.40,30.30,4,1,20,0.00
2013-9-28,88.3,68.0,51.8,61.6,56.0,49.6,93,68,39,30.34,30.16,6,2,26,0.00
2013-9-29,135.9,56.0,-35.9,99.9,48.0,-39.8,96,77,55,30.25,30.16,5,2,22,0.01
2013-9-30,135.7,57.7,-38.9,99.9,46.0,-47.1,100,69,39,30.23,30.12,7,2,17,0.00
2013-10-3,134.4,81.3,39.4,99.9,75.8,39.1,100,96,85,30.21,30.14,4,2,18,0.00
2013-10-4,136.9,56.2,-39.6,99.9,49.5,-39.6,100,84,59,30.22,30.15,6,2,14,0.00
2013-10-5,104.4,53.9,22.3,65.0,53.2,21.8,98,97,97,30.17,30.17,1,0,9,0.00
2013-10-6,60.1,30.5,-36.2,60.1,24.8,-43.3,100,81,47,30.02,29.92,12,3,20,0.00
2013-10-7,104.0,12.7,-39.6,75.0,7.6,-50.0,92,81,40,30.22,29.99,9,4,26,0.00
2013-10-8,99.3,56.1,-23.8,66.2,41.6,-30.1,83,61,33,30.42,30.36,3,1,15,0.00
2013-10-9,85.5,49.5,31.5,52.3,39.5,29.7,94,72,32,30.48,30.37,6,1,20,0.00
2013-10-10,84.9,53.5,35.4,57.2,44.5,33.9,94,75,37,30.40,30.28,3,0,12,0.00
2013-10-11,88.7,56.9,40.1,57.6,45.2,37.7,92,69,32,30.33,30.21,4,1,15,0.00
2013-10-12,79.0,59.1,44.6,63.6,52.3,41.3,93,80,54,30.38,30.20,9,2,26,0.01
2013-10-13,54.5,50.2,46.0,48.5,45.1,42.4,87,83,80,30.41,30.39,1,0,3,0.00
2013-10-15,63.0,50.9,-36.6,63.0,48.5,-39.4,100,91,81,30.25,30.03,6,2,17,0.00
2013-10-16,44.1,3.7,-38.7,41.7,-0.1,-40.6,93,84,75,30.12,30.08,7,3,24,0.00